Location: Horowhenua
(40.7500°S, 175.3333°E)
Time: 06:54:39
(UTC+00:00)

ALOS 2 - Pass Details

Date: 28 January 2023
Orbit: 630 x 632 km, 97.9° (Epoch: 01 April)

Event Time Altitude Azimuth Distance (km) Brightness Sun altitude
Rises 13:00:26 0° 173° (S) 2,962 7.2 -30.7°
Reaches altitude 10° 13:02:42 10° 177° (S) 2,046 6.1 -30.6°
Enters shadow 13:05:32 36° 198° (SSW) 1,030 4.0 -30.5°
